This demonstration page uses our WeatherBlox Daily Observations layout. Learn more.

Left ArrowRight Arrow

Hourly Observations for May 7, 2021

Temp ( °F °C ) Dew Point ( °F °C ) Humidity (%) Winds ( mph kmh ) Pressure ( in mb ) Visibility ( mi km ) Precip ( " mm )
12:53 am 00:53 Clear 66 18.9 42 5.6 42 42 W 7 11 29.93 1014 10 16 0.00 0.00
1:53 am 01:53 Clear 65 18.3 40 4.4 40 40 WNW 12 19 29.94 1014 10 16 0.00 0.00
2:53 am 02:53 Clear 63 17.2 38 3.3 40 40 VRB 7 11 29.95 1014 10 16 0.00 0.00
3:53 am 03:53 Clear 62 16.7 37 2.8 40 40 NNW 5 7 29.96 1015 10 16 0.00 0.00
4:53 am 04:53 Clear 60 15.6 42 5.6 52 52 N 6 9 29.98 1015 10 16 0.00 0.00
5:53 am 05:53 Clear 59 15 35 1.7 41 41 WNW 7 11 29.98 1015 10 16 0.00 0.00
6:53 am 06:53 Sunny 60 15.6 34 1.1 38 38 NW 8 13 30.00 1016 10 16 0.00 0.00
7:53 am 07:53 Sunny 63 17.2 36 2.2 37 37 NW 8 13 30.01 1016 10 16 0.00 0.00
8:53 am 08:53 Sunny 67 19.4 35 1.7 31 31 NNW 10 17 30.01 1016 10 16 0.00 0.00
9:53 am 09:53 Sunny 69 20.6 35 1.7 29 29 N 16 26 30.01 1016 10 16 0.00 0.00
10:53 am 10:53 Sunny 71 21.7 31 -0.6 23 23 N 17 28 30.01 1016 10 16 0.00 0.00
11:53 am 11:53 Sunny 75 23.9 27 -2.8 17 17 NNW 13 20 30.02 1017 10 16 0.00 0.00
12:53 pm 12:53 Sunny 76 24.4 21 -6.1 13 13 N 17 28 30.01 1016 10 16 0.00 0.00
1:53 pm 13:53 Sunny 77 25 23 -5 13 13 NNW 14 22 29.99 1016 10 16 0.00 0.00
2:53 pm 14:53 Sunny 78 25.6 20 -6.7 11 11 N 14 22 29.98 1015 10 16 0.00 0.00
3:53 pm 15:53 Sunny 80 26.7 17 -8.3 9 9 NNW 18 30 29.96 1015 10 16 0.00 0.00
4:53 pm 16:53 Sunny 80 26.7 17 -8.3 9 9 N 16 26 29.96 1015 10 16 0.00 0.00
5:53 pm 17:53 Sunny 80 26.7 19 -7.2 10 10 N 15 24 29.96 1015 10 16 0.00 0.00
6:53 pm 18:53 Sunny 78 25.6 23 -5 13 13 N 17 28 29.96 1015 10 16 0.00 0.00
7:53 pm 19:53 Sunny 75 23.9 21 -6.1 13 13 N 15 24 29.98 1015 10 16 0.00 0.00
8:53 pm 20:53 Clear 72 22.2 24 -4.4 17 17 N 18 30 30.02 1017 10 16 0.00 0.00
9:53 pm 21:53 Clear 69 20.6 27 -2.8 21 21 N 16 26 30.06 1018 10 16 0.00 0.00
10:53 pm 22:53 Clear 66 18.9 26 -3.3 22 22 NNE 15 24 30.08 1019 10 16 0.00 0.00
11:53 pm 23:53 Clear 64 17.8 25 -3.9 23 23 N 12 19 30.09 1019 10 16 0.00 0.00

Powered by AerisWeather